Location: Anzin
(50.3131°N, 2.7473°E)
Time: 13:12:00
(UTC+00:00)

Daily predictions for brighter satellites

Satellite Brightness Start Highest point End
(mag) Time Altitude Azimuth Time Altitude Azimuth Time Altitude Azimuth
IRS-1A Rocket 4.5 19:46:30 10° SSE 19:52:18 88° WSW 19:58:13 10° NNW
Intercosmos 24 4.3 19:51:35 10° SSE 19:55:01 36° E 19:58:21 10° NNE
Cosmos 1242 Rocket 3.5 19:54:41 10° SSE 19:57:45 27° E 20:00:49 10° NE
Cosmos 1805 Rocket 3.5 19:54:16 10° N 19:58:38 77° ENE 20:03:00 10° SSE
Cosmos 1633 Rocket 3.8 20:02:09 10° N 20:06:17 38° ENE 20:10:23 10° SE
Cosmos 1386 Rocket 4.5 20:00:23 10° N 20:06:26 80° E 20:12:31 10° SSE
SPOT 5 4.4 20:02:40 10° ESE 20:06:45 25° ENE 20:10:58 10° N
BREEZE-M DEB (TANK) 4.5 19:49:09 10° SW 20:06:53 66° SSE 20:10:59 10° ENE
ERBS 4.3 20:05:24 10° WNW 20:08:18 28° N 20:11:13 10° NE
ARIANE 5 R/B 3.7 20:06:32 10° SE 20:10:16 29° ENE 20:14:02 10° N
Terra 3.6 20:07:36 10° E 20:10:50 19° ENE 20:14:06 10° NNE
USA 290 2.2 20:08:06 10° NNW 20:11:22 90° ESE 20:14:35 10° SSE
ERS-1 Rocket 4.2 20:11:00 10° ESE 20:15:13 28° ENE 20:19:28 10° N
Cosmos 1745 Rocket 4.1 20:09:45 10° N 20:16:00 87° W 20:22:09 10° S
IGS 5A 3.5 20:12:00 10° SSE 20:16:08 74° ENE 20:20:17 10° N
Resurs 1-3 4.2 20:14:05 10° S 20:18:23 57° W 20:22:44 10° NNW
Cosmos 1709 Rocket 4.1 20:12:36 10° N 20:18:41 62° ENE 20:24:43 10° SSE
Cosmos 1328 Rocket 4.5 20:15:22 10° SSE 20:19:15 31° E 20:23:08 10° NNE
Cosmos 1437 4.2 20:17:58 12° SE 20:19:26 16° E 20:21:20 10° NE
Cosmos 1933 3.4 20:16:08 10° S 20:20:08 63° E 20:24:08 10° NNE
Cosmos 1503 Rocket 4.1 20:16:00 10° S 20:21:00 53° ESE 20:26:04 10° NNE
X-37B 1.8 20:19:10 10° WSW 20:21:59 28° S 20:24:16 13° SE
Cosmos 1437 Rocket 3.1 20:19:04 10° SSW 20:22:55 70° WNW 20:26:54 10° N
USA 305 3.4 20:20:26 10° WNW 20:24:39 59° NNE 20:28:53 10° E
Cosmos 2082 Rocket 3.5 20:22:16 10° NNW 20:27:08 29° NE 20:31:58 10° ESE
CARTOSAT-1 4.3 20:23:35 12° SE 20:27:16 37° ENE 20:31:15 10° N
Cosmos 1500 4.0 20:23:48 10° N 20:27:17 35° ENE 20:30:08 14° SE
COSMOS 2406 3.8 20:22:12 10° NNW 20:27:40 46° NE 20:32:38 12° ESE
Meteor 1-20 Rocket 4.4 20:24:56 10° NNW 20:30:35 78° W 20:36:07 10° S
Cosmos 1666 Rocket 3.5 20:28:29 10° N 20:32:56 81° E 20:37:17 10° SSE
Ariane Rocket 4.1 20:28:11 10° S 20:32:58 42° W 20:37:49 10° NNW
Meteor 2-17 Rocket 4.5 20:29:02 10° N 20:35:15 84° E 20:41:24 10° S
S3M 4.2 20:32:00 10° SSW 20:38:24 79° W 20:44:46 10° N
Cosmos 2315 Rocket 4.1 20:33:34 10° S 20:39:49 63° E 20:46:08 10° NNE
Cosmos 1782 2.9 20:36:49 10° S 20:40:45 58° E 20:44:40 10° NNE
Landsat 7 4.0 20:36:10 10° S 20:40:55 75° WSW 20:45:42 10° NNW
Gbstr 26 Del rocket 4.4 20:33:24 10° W 20:41:21 83° N 20:48:10 10° E
USA 306 3.2 20:39:38 10° WNW 20:43:54 66° NNE 20:47:58 11° E
USA 245 1.9 20:42:52 22° SSE 20:44:06 64° ENE 20:46:20 10° N
Cosmos 1271 Rocket 4.4 20:46:43 16° ESE 20:48:10 19° E 20:51:01 10° NE
Cosmos 1602 4.0 20:46:34 10° NNW 20:50:25 68° W 20:54:02 11° S
SPOT 1/Viking Rocket 3.6 20:45:30 11° SSE 20:50:28 87° WSW 20:55:42 10° NNW
Sich 1 4.2 20:48:17 10° NNW 20:52:20 40° W 20:56:25 10° SSW
Cosmos 1354 Rocket 3.9 20:47:39 10° SSW 20:52:53 81° ESE 20:58:10 10° NNE
SJ 16-02 2.7 20:52:10 18° SE 20:53:52 22° E 20:57:18 10° NE
Cosmos 2278 Rocket 2.9 20:50:05 12° SSE 20:54:34 33° ESE 20:59:33 10° NE
NOSS 3-4 (A) 4.2 20:50:18 10° NW 20:57:00 59° NE 21:03:32 14° ESE
NOSS 3-4 (C) 4.2 20:50:25 10° NW 20:57:06 59° NE 21:03:39 14° ESE
Resurs 01 Rocket 2.9 20:54:09 10° SSW 20:58:19 39° W 21:02:30 10° NNW
CRYOSAT 2 4.5 20:56:19 10° S 21:01:11 79° W 21:06:07 10° N
Cosmos 2228 Rocket 4.4 21:01:58 18° ESE 21:03:40 23° E 21:07:10 10° NE
Cosmos 1844 Rocket 3.6 20:58:43 10° SW 21:04:08 50° NW 21:09:36 10° NNE
NOSS 3-3 (A) 3.9 21:02:08 10° SSW 21:07:50 63° SE 21:14:23 10° NE
NOSS 3-3 (C) 3.9 21:02:14 10° SSW 21:07:57 63° SE 21:14:29 10° NE
USA 307 3.0 21:05:24 10° WNW 21:09:42 78° NNE 21:12:48 18° ESE
ATLAS 2AS CENTAUR R/B 3.5 21:03:09 10° NW 21:10:29 49° NNE 21:16:52 12° ESE
CREW DRAGON DEMO-1 DEB 2.3 21:11:45 10° WNW 21:14:24 86° SSW 21:15:13 39° ESE
Cosmos 1151 Rocket 3.5 21:10:47 10° SSW 21:15:06 64° WNW 21:19:29 10° N
BREEZE-M R/B 1.6 21:15:08 10° WSW 21:17:32 60° SSE 21:18:26 33° E
Cosmos 1536 4.0 21:14:10 10° N 21:17:44 29° ENE 21:19:22 22° ESE
CZ-4C R/B 3.0 21:10:42 10° NW 21:17:48 79° SW 21:23:48 21° SSE
Cosmos 1812 2.6 21:16:50 22° S 21:19:15 71° E 21:23:07 10° NNE
USA 215 4.0 21:13:30 10° E 21:19:47 52° N 21:26:05 10° WNW
Meteor 1-10 Rocket 4.5 21:17:12 20° SSE 21:20:49 50° E 21:26:17 10° NNE
Iridium 4 Rocket 3.8 21:18:17 19° SSE 21:22:24 67° E 21:28:17 10° N
USA 308 2.9 21:18:55 10° WNW 21:23:14 87° NNE 21:25:49 24° ESE
JB-3 4.2 21:19:18 10° NNE 21:23:15 85° ESE 21:25:57 19° SSW
ATLAS 5 CENTAUR R/B 3.4 21:19:01 10° WNW 21:24:07 36° WSW 21:28:41 16° S
Cosmos 1538 Rocket 4.0 21:20:11 10° NNW 21:25:35 88° WSW 21:28:51 25° SSE
Meteor 1-5 Rocket 4.1 21:21:43 10° NNW 21:27:11 81° W 21:30:46 21° S
Cosmos 2084 3.2 21:25:34 10° SW 21:29:42 73° SE 21:33:58 10° NE
Cosmos 158 Rocket 4.0 21:25:11 10° NNW 21:30:03 65° ENE 21:32:38 27° SE
SL-24 DEB 4.5 21:30:18 28° SE 21:32:30 53° E 21:37:00 10° N
Cosmos 1666 2.6 21:29:33 10° NNW 21:33:18 83° W 21:34:56 32° S
Cosmos 1833 Rocket 2.9 21:30:29 10° NNW 21:36:06 67° WSW 21:39:27 25° S
Cosmos 1515 Rocket 3.6 21:34:00 18° SSW 21:37:13 81° W 21:41:39 10° N
Cosmos 1869 Rocket 3.8 21:35:17 10° N 21:39:34 56° ENE 21:41:16 33° SE
Spot 2 Rocket 4.4 21:36:57 15° SSW 21:40:47 43° W 21:45:37 10° NNW
Cosmos 1743 4.0 21:38:20 10° N 21:41:41 27° ENE 21:42:43 24° E
Cosmos 1680 Rocket 4.0 21:37:48 10° NNW 21:43:01 50° ENE 21:45:47 26° ESE
SPOT 5 3.4 21:41:10 22° S 21:44:23 61° W 21:49:38 10° NNW
ERBS 4.2 21:42:11 10° NW 21:45:06 27° N 21:48:01 10° ENE
ARIANE 5 R/B 3.8 21:43:44 16° SSW 21:46:39 35° W 21:50:40 10° NNW
Terra 1.9 21:45:33 28° S 21:48:04 74° WSW 21:52:51 10° NNW
ERS-1 Rocket 3.6 21:50:40 21° SSW 21:53:47 49° W 21:58:41 10° NNW
Cosmos 2154 Rocket 4.0 21:50:17 10° N 21:56:41 84° E 22:00:11 29° SSE
X-37B 3.3 21:56:19 10° WSW 21:56:32 11° SW 21:56:32 11° SW
Cosmos 1707 Rocket 4.3 21:59:37 32° ESE 22:00:28 35° E 22:04:29 10° NNE
ALOS 2 4.3 21:59:30 18° E 22:01:18 22° ENE 22:04:43 10° N
Cosmos 2184 Rocket 4.3 21:58:17 10° NNW 22:04:26 62° W 22:08:19 23° SSW
USA 305 3.0 22:00:28 10° WNW 22:04:39 56° SSW 22:05:35 45° SSE
Cosmos 2082 Rocket 2.3 22:06:06 10° NNW 22:11:42 67° WSW 22:14:07 34° S
COSMOS 2406 4.2 22:06:43 10° NW 22:11:53 37° WSW 22:14:42 23° SSW
Cosmos 962 Rocket 4.5 22:08:07 10° N 22:14:15 70° ENE 22:17:03 34° SSE
Meteor 1-27 Rocket 3.7 22:12:02 29° S 22:15:11 84° E 22:21:08 10° NNE
Cosmos 44 3.7 22:10:20 10° NW 22:15:47 67° NE 22:18:21 31° ESE
Cosmos 923 Rocket 4.1 22:13:20 10° NNW 22:18:36 72° WSW 22:20:38 38° S
Nadezhda 1 Rocket 4.0 22:16:05 26° SSW 22:19:57 84° W 22:26:14 10° N
Cosmos 1898 Rocket 3.8 22:20:55 39° SSE 22:22:19 49° ESE 22:27:28 10° NNE
USA 306 3.3 22:19:42 10° WNW 22:23:47 44° SW 22:24:02 43° SSW
Cosmos 1271 Rocket 3.7 22:21:48 24° SW 22:23:49 44° WNW 22:27:42 10° N
Cosmos 1544 3.0 22:25:08 10° NNW 22:28:44 68° W 22:29:08 61° SW
Gbstr 26 Del rocket 4.1 22:21:29 10° WNW 22:29:03 87° NNE 22:34:28 14° ESE
Cosmos 1733 Rocket 3.1 22:27:06 10° N 22:31:25 64° ENE 22:32:19 50° SE
SJ 16-02 2.2 22:29:06 18° SW 22:32:08 48° WNW 22:36:28 10° NNE
Cosmos 2181 Rocket 4.2 22:34:45 36° SSE 22:37:01 54° E 22:42:58 10° NNE
Cosmos 1238 Rocket 3.9 22:31:16 10° N 22:37:42 75° E 22:39:55 40° SSE
Cosmos 2278 Rocket 3.0 22:32:56 10° SW 22:38:27 51° NW 22:43:59 10° NNE
Cosmos 1515 3.7 22:38:29 59° ESE 22:38:36 60° E 22:42:20 10° NNE
Okean 1 3.4 22:40:56 54° ESE 22:41:11 55° E 22:45:07 10° NNE
Cosmos 2228 Rocket 4.0 22:39:25 24° SW 22:41:36 42° WNW 22:45:53 10° N
Cosmos 990 Rocket 3.9 22:40:05 39° SSW 22:42:06 83° ESE 22:47:24 10° NNE
Cosmos 1340 Rocket 3.1 22:38:43 10° NNW 22:42:44 57° W 22:43:27 49° SW
Cosmos 2366 rocket 4.0 22:40:58 10° N 22:47:08 70° ENE 22:49:36 38° SSE
NOSS 3-4 (A) 4.3 22:41:19 10° NW 22:47:56 46° WSW 22:50:58 32° S
NOSS 3-4 (C) 4.3 22:41:25 10° NW 22:48:03 47° WSW 22:51:05 32° S
Cosmos 2369 Rocket 3.2 22:48:04 27° ESE 22:48:39 28° ESE 22:53:20 10° NE
Cosmos 2341 Rocket 4.1 22:42:35 10° NNW 22:49:01 78° W 22:51:45 37° S
USA 307 4.0 22:45:37 10° WNW 22:48:53 31° WSW 22:48:53 31° WSW
Cosmos 1943 Rocket 2.4 22:52:39 43° SSE 22:53:57 52° ESE 22:59:23 10° NE
Cosmos 1536 4.2 22:50:36 10° NNW 22:54:07 28° W 22:55:05 25° WSW
Meteor 2-9 Rocket 4.2 22:48:44 10° N 22:54:36 82° ENE 22:56:34 43° SSE
SeaSat 1 4.0 22:51:40 10° ENE 22:55:08 20° ESE 22:55:08 20° ESE
Cosmos 2112 Rocket 4.4 22:52:06 10° NNW 22:57:19 54° WSW 22:58:49 40° SSW
Cosmos 1461 4.3 22:58:11 28° ESE 22:58:11 28° ESE 23:01:33 10° ENE
ATLAS 2AS CENTAUR R/B 2.9 22:54:28 10° NW 23:01:42 59° WSW 23:04:17 38° S
USA 215 3.3 22:57:12 17° ESE 23:02:31 83° NNE 23:09:04 10° WNW
USA 308 4.4 22:59:15 10° W 23:01:54 24° WSW 23:01:54 24° WSW
CZ-4C R/B 4.4 23:00:09 10° WNW 23:05:48 24° WSW 23:08:59 19° SW
RESURS DK-1 3.8 23:02:15 10° NNW 23:06:02 32° NE 23:07:43 24° E
Cosmos 2218 Rocket 4.0 23:00:21 10° N 23:06:39 85° W 23:09:04 41° S
Cosmos 1975 2.6 23:04:01 10° N 23:08:01 82° ENE 23:08:17 75° SE
SL-24 R/B - RUBIN 2 4.1 23:03:03 10° NW 23:08:27 55° WSW 23:09:20 48° SSW
Cosmos 489 Rocket 4.4 23:03:34 10° NNW 23:09:50 85° WSW 23:12:08 42° SSE
Meteor 2-4 Rocket 4.1 23:09:23 41° SE 23:10:58 52° E 23:16:27 10° NNE
Cosmos 1862 Rocket 3.5 23:13:56 61° SSW 23:14:37 78° W 23:18:59 10° N
Cosmos 1703 Rocket 4.2 23:14:30 39° ESE 23:14:51 40° E 23:18:59 10° NNE
Cosmos 1782 Rocket 4.4 23:11:27 10° N 23:15:42 41° ENE 23:16:38 36° ESE
Cosmos 1743 4.1 23:14:06 10° NNW 23:17:24 27° W 23:17:47 27° W
Cosmos 1900 4.3 23:18:46 48° SSW 23:20:11 83° SE 23:25:16 10° NE
Cosmos 2084 Rocket 3.4 23:16:26 10° NW 23:20:40 62° SW 23:20:45 62° SW
ERBS 2.9 23:18:16 10° NW 23:20:56 53° NW 23:20:56 53° NW
Terra 4.3 23:25:47 10° W 23:26:40 10° W 23:27:33 10° WNW
Cosmos 1937 Rocket 3.6 23:26:02 40° SW 23:27:50 71° WNW 23:33:02 10° NNE
Meteor 1-18 Rocket 4.2 23:27:33 43° SSW 23:29:28 79° WNW 23:35:06 10° N
Nadezhda 3 Rocket 4.4 23:28:06 36° SE 23:30:13 51° E 23:36:13 10° NNE
ATLAS CENTAUR R/B 3.6 23:34:53 12° E 23:34:53 12° E 23:35:35 10° ENE
Cosmos 2297 4.0 23:32:11 30° SW 23:35:00 66° WNW 23:40:40 10° NNE
Thor Agena Rocket 3.7 23:30:17 10° NNE 23:35:28 59° ESE 23:36:39 47° SSE
Cosmos 1818 3.8 23:30:41 10° NW 23:36:00 52° WSW 23:36:53 47° SSW
Okean 3 4.4 23:35:42 34° ESE 23:36:02 34° E 23:39:53 10° NNE
ALOS 2 2.9 23:36:53 47° WSW 23:37:20 50° W 23:41:38 10° NNW
Cosmos 1048 Rocket 4.1 23:32:08 10° NNW 23:37:30 74° ENE 23:39:11 44° SE
USA 281 4.4 23:32:23 10° ESE 23:38:20 38° NE 23:44:18 10° NNW
DNEPR-1 R/B 4.0 23:39:47 39° SW 23:41:56 88° NW 23:46:50 10° NE
Cosmos 2298 Rocket 4.4 23:41:55 42° SE 23:42:50 46° ESE 23:47:55 10° NE
Okean 1-7 2.9 23:42:48 69° SE 23:43:08 74° E 23:47:25 10° NNE
PSLV R/B 4.3 23:40:34 10° NNE 23:44:45 39° E 23:45:08 39° ESE
SL-08 R/B 4.5 23:39:08 10° NNW 23:45:20 77° W 23:47:31 43° S
Cosmos 44 Rocket 4.5 23:41:02 10° NNW 23:46:05 44° NE 23:50:23 13° ESE
Resurs 1-4 Rocket 4.4 23:49:07 10° ENE 23:50:51 12° E 23:52:35 10° ESE
Cosmos 2082 Rocket 4.4 23:53:00 10° WNW 23:54:41 11° W 23:55:58 11° WSW
Lacrosse 5 4.2 23:58:45 10° ESE 23:58:45 10° ESE 23:59:08 10° ESE
